GW5801 Weather Reports


time (UTC)temp
C
wind
direction
speed
KPH
gust
KPH
rain 1hr
cm
rain 24hr
cm
rain mn
cm
humidity
%
barometer
mb
20260506051022 25 214 0.0 3.2 0.00 0.00 0.00 89 1010.2
20260506050520 25 185 1.6 3.2 0.00 0.00 0.00 89 1010.0
20260506045011 25 230 0.0 4.8 0.00 0.00 0.00 89 1010.1
20260506044509 25 219 0.0 3.2 0.00 0.00 0.00 89 1010.1
20260506044005 25 143 1.6 3.2 0.00 0.00 0.00 89 1010.0
20260506043502 25 195 1.6 4.8 0.00 0.00 0.00 89 1009.9
20260506043000 25 203 3.2 6.4 0.00 0.00 0.00 89 1010.0
20260506042455 25 332 0.0 4.8 0.00 0.00 0.00 89 1009.9
20260506041952 25 109 1.6 3.2 0.00 0.00 0.00 89 1010.0
20260506041450 25 258 1.6 9.7 0.00 0.00 0.00 89 1010.0
20260506040947 25 135 0.0 3.2 0.00 0.00 0.00 89 1010.0
20260506040445 25 261 1.6 4.8 0.00 0.00 0.00 89 1009.8
20260506035940 25 178 3.2 6.4 0.00 0.00 0.00 89 1009.8
20260506035438 25 140 1.6 4.8 0.00 0.00 0.00 89 1010.0
20260506034934 25 226 3.2 6.4 0.00 0.00 0.00 89 1009.8
20260506034431 25 129 3.2 4.8 0.00 0.00 0.00 88 1009.8
20260506033929 25 229 1.6 4.8 0.00 0.00 0.00 88 1009.8
20260506033426 25 152 3.2 4.8 0.00 0.00 0.00 88 1009.7
20260506032922 25 204 1.6 4.8 0.00 0.00 0.00 88 1009.6
20260506032420 25 116 0.0 6.4 0.00 0.00 0.00 88 1009.8
20260506031916 25 125 6.4 9.7 0.00 0.00 0.00 89 1009.5
20260506031414 25 196 0.0 9.7 0.00 0.00 0.00 89 1009.5
20260506030911 25 236 1.6 3.2 0.00 0.00 0.00 89 1009.6
20260506030409 25 85 1.6 4.8 0.00 0.00 0.00 89 1009.6
20260506025905 25 180 4.8 6.4 0.00 0.00 0.00 89 1009.7
20260506025403 25 218 1.6 3.2 0.00 0.00 0.00 89 1009.5
20260506024859 25 173 1.6 4.8 0.00 0.00 0.00 89 1009.3
20260506024356 25 240 0.0 9.7 0.00 0.00 0.00 89 1009.4
20260506023852 25 206 1.6 3.2 0.00 0.00 0.00 89 1009.2
20260506023349 25 182 1.6 6.4 0.00 0.00 0.00 89 1009.2
20260506022846 25 163 1.6 3.2 0.00 0.00 0.00 89 1009.1
20260506022344 25 193 3.2 11.3 0.00 0.00 0.00 89 1009.1
20260506021841 25 182 1.6 3.2 0.00 0.00 0.00 89 1009.0
20260506021338 25 192 1.6 4.8 0.00 0.00 0.00 89 1008.9
20260506020835 25 184 0.0 6.4 0.00 0.00 0.00 88 1008.8
20260506020333 25 226 1.6 3.2 0.00 0.00 0.00 88 1008.9
20260506015830 25 113 1.6 1.6 0.00 0.00 0.00 88 1008.7
20260506015327 25 201 1.6 3.2 0.00 0.00 0.00 87 1008.7
20260506014824 25 160 1.6 3.2 0.00 0.00 0.00 87 1008.6
20260506014321 25 179 0.0 4.8 0.00 0.00 0.00 87 1008.5
20260506013818 25 219 1.6 4.8 0.00 0.00 0.00 87 1008.5
20260506013315 25 195 4.8 4.8 0.00 0.00 0.00 87 1008.5
20260506012811 25 244 1.6 6.4 0.00 0.00 0.00 86 1008.5
20260506012309 25 238 1.6 4.8 0.00 0.00 0.00 86 1008.4
20260506011806 25 356 1.6 3.2 0.00 0.00 0.00 86 1008.3
20260506011302 25 182 1.6 3.2 0.00 0.00 0.00 86 1008.2
20260506010800 25 233 4.8 6.4 0.00 0.00 0.00 86 1008.1
20260506010257 25 143 4.8 14.5 0.00 0.00 0.00 86 1008.0
20260506005754 25 233 1.6 3.2 0.00 0.00 0.00 86 1008.0
20260506005251 25 101 3.2 6.4 0.00 0.00 0.00 86 1007.9
20260506004747 26 122 1.6 11.3 0.00 0.00 0.00 85 1008.0
20260506004245 26 237 1.6 3.2 0.00 0.00 0.00 85 1007.7
20260506003740 26 235 0.0 4.8 0.00 0.00 0.00 85 1007.8
20260506003237 26 199 0.0 4.8 0.00 0.00 0.00 85 1007.7
20260506002734 26 238 1.6 3.2 0.00 0.00 0.00 85 1007.8
20260506002229 26 130 1.6 4.8 0.00 0.00 0.00 84 1007.9
20260506001725 26 193 4.8 14.5 0.00 0.00 0.00 84 1007.7
20260506001223 26 186 3.2 6.4 0.00 0.00 0.00 84 1007.7
20260506000720 26 340 3.2 6.4 0.00 0.00 0.00 84 1007.8
20260506000219 26 207 1.6 6.4 0.00 0.00 0.00 84 1007.9
20260505235715 26 133 1.6 6.4 0.00 0.00 0.00 84 1008.0
20260505235213 26 216 1.6 9.7 0.00 0.00 0.00 83 1007.8
20260505234709 26 200 1.6 3.2 0.00 0.00 0.00 83 1007.8
20260505234206 26 157 3.2 4.8 0.00 0.00 0.00 83 1007.8
20260505233702 26 169 4.8 11.3 0.00 0.00 0.00 83 1007.9
20260505233201 26 164 3.2 14.5 0.00 0.00 0.00 82 1008.0
20260505232658 26 245 3.2 9.7 0.00 0.00 0.00 82 1008.0
20260505232155 26 224 1.6 11.3 0.00 0.00 0.00 81 1007.9
20260505231652 26 266 3.2 6.4 0.00 0.00 0.00 82 1007.9
20260505231151 26 119 3.2 11.3 0.00 0.00 0.00 81 1007.7
20260505230649 26 235 1.6 12.9 0.00 0.00 0.00 81 1007.9
20260505230145 26 225 1.6 4.8 0.00 0.00 0.00 81 1007.9
20260505225641 26 139 1.6 4.8 0.00 0.00 0.00 81 1007.8
20260505225137 26 145 3.2 14.5 0.00 0.00 0.00 81 1008.0
20260505224633 26 74 6.4 11.3 0.00 0.00 0.00 81 1007.8
20260505224132 26 250 6.4 9.7 0.00 0.00 0.00 81 1007.8
20260505223629 26 232 1.6 3.2 0.00 0.00 0.00 82 1007.9
20260505223125 26 121 0.0 1.6 0.00 0.00 0.00 83 1007.8
20260505222621 26 269 3.2 6.4 0.00 0.00 0.00 82 1008.0
20260505222117 26 109 1.6 4.8 0.00 0.00 0.00 82 1008.1
20260505221614 26 251 1.6 4.8 0.00 0.00 0.00 83 1008.0
20260505221111 27 238 3.2 6.4 0.00 0.00 0.00 82 1008.0
20260505220609 26 206 0.0 4.8 0.00 0.00 0.00 83 1008.0
20260505220106 26 238 6.4 11.3 0.00 0.00 0.00 83 1008.1
20260505215604 26 190 3.2 12.9 0.00 0.00 0.00 82 1008.1
20260505215101 27 172 1.6 6.4 0.00 0.00 0.00 82 1008.3
20260505214554 27 190 6.4 11.3 0.00 0.00 0.00 81 1008.2
20260505214050 27 185 3.2 6.4 0.00 0.00 0.00 80 1008.4
20260505213548 27 111 4.8 9.7 0.00 0.00 0.00 79 1008.4
20260505213044 27 184 3.2 11.3 0.00 0.00 0.00 80 1008.2
20260505212541 27 221 3.2 11.3 0.00 0.00 0.00 82 1008.4
20260505212038 26 127 6.4 9.7 0.00 0.00 0.00 82 1008.3
20260505211535 26 134 1.6 11.3 0.00 0.00 0.00 83 1008.5
20260505211031 27 168 6.4 12.9 0.00 0.00 0.00 82 1008.6
20260505210528 27 53 3.2 4.8 0.00 0.00 0.00 82 1008.8
20260505210025 27 228 3.2 3.2 0.00 0.00 0.00 81 1008.5
20260505205523 27 142 4.8 6.4 0.00 0.00 0.00 81 1008.6
20260505205020 27 169 4.8 9.7 0.00 0.00 0.00 81 1008.9
20260505204518 27 207 0.0 4.8 0.00 0.00 0.00 82 1008.9
20260505204014 27 258 1.6 4.8 0.00 0.00 0.00 82 1009.0
20260505203511 27 207 3.2 9.7 0.00 0.00 0.00 82 1009.0
20260505203008 27 240 1.6 3.2 0.00 0.00 0.00 83 1009.2
20260505202504 27 155 3.2 3.2 0.00 0.00 0.00 83 1009.2
20260505202000 27 218 1.6 9.7 0.00 0.00 0.00 82 1009.4
20260505201457 27 263 4.8 6.4 0.00 0.00 0.00 81 1009.2
20260505200955 27 100 1.6 3.2 0.00 0.00 0.00 82 1009.2
20260505200452 27 255 3.2 11.3 0.00 0.00 0.00 83 1009.3
20260505195948 27 151 3.2 4.8 0.00 0.00 0.00 82 1009.4
20260505195445 27 219 1.6 9.7 0.00 0.00 0.00 82 1009.4
20260505194942 27 235 3.2 11.3 0.00 0.00 0.00 82 1009.4
20260505194440 27 172 1.6 4.8 0.00 0.00 0.00 82 1009.3
20260505193939 27 217 1.6 6.4 0.00 0.00 0.00 82 1009.5
20260505193437 27 115 3.2 4.8 0.00 0.00 0.00 81 1009.7
20260505192935 27 237 0.0 4.8 0.00 0.00 0.00 83 1009.4
20260505192433 26 186 3.2 4.8 0.00 0.00 0.00 85 1009.5
20260505191930 26 207 3.2 3.2 0.00 0.00 0.00 86 1009.8
20260505191429 26 187 1.6 4.8 0.00 0.00 0.00 85 1009.9
20260505190925 26 194 1.6 4.8 0.00 0.00 0.00 84 1009.7
20260505190421 26 206 3.2 3.2 0.00 0.00 0.00 84 1009.7
20260505185916 26 189 1.6 3.2 0.00 0.00 0.00 85 1009.7
20260505185414 26 214 0.0 6.4 0.00 0.00 0.00 85 1010.0
20260505184910 26 242 3.2 6.4 0.00 0.00 0.00 85 1009.7
20260505184407 26 260 1.6 4.8 0.00 0.00 0.00 85 1009.9
20260505183904 26 101 3.2 6.4 0.00 0.00 0.00 86 1010.1
20260505183400 26 248 3.2 3.2 0.00 0.00 0.00 86 1010.1
20260505182857 26 224 0.0 6.4 0.00 0.00 0.00 87 1010.0
20260505182354 25 250 1.6 11.3 0.00 0.00 0.00 87 1010.1
20260505181851 26 184 1.6 9.7 0.00 0.00 0.00 86 1010.1
20260505181348 26 253 1.6 6.4 0.00 0.00 0.00 85 1010.0
20260505180845 26 207 1.6 4.8 0.00 0.00 0.00 85 1010.1
20260505180341 26 190 3.2 4.8 0.00 0.00 0.00 85 1010.1
20260505175838 26 209 0.0 3.2 0.00 0.00 0.00 87 1010.1
20260505175334 25 277 0.0 3.2 0.00 0.00 0.00 87 1010.0
20260505174831 25 168 3.2 9.7 0.00 0.00 0.00 87 1010.4
20260505174328 25 118 4.8 6.4 0.00 0.00 0.00 87 1010.2
20260505173824 26 248 1.6 11.3 0.00 0.00 0.00 86 1010.5
20260505173320 26 104 3.2 3.2 0.00 0.00 0.00 85 1010.3
20260505172818 26 121 3.2 6.4 0.00 0.00 0.00 84 1010.3
20260505172316 26 203 1.6 4.8 0.00 0.00 0.00 84 1010.4
20260505171815 26 221 3.2 6.4 0.00 0.00 0.00 84 1010.4
20260505171312 26 132 3.2 4.8 0.00 0.00 0.00 86 1010.5
20260505170808 25 196 1.6 4.8 0.00 0.00 0.00 85 1010.5
20260505170306 25 127 1.6 4.8 0.00 0.00 0.00 86 1010.6
20260505165801 25 213 0.0 1.6 0.00 0.00 0.00 86 1010.4
20260505165257 26 195 1.6 4.8 0.00 0.00 0.00 85 1010.4
20260505164753 26 107 4.8 4.8 0.00 0.00 0.00 84 1010.4
20260505164250 26 236 1.6 3.2 0.00 0.00 0.00 83 1010.2
20260505163748 26 264 0.0 6.4 0.00 0.00 0.00 83 1010.4
20260505163247 26 162 3.2 3.2 0.00 0.00 0.00 83 1010.2
20260505162743 26 268 1.6 4.8 0.00 0.00 0.00 83 1010.3
20260505162240 26 229 0.0 4.8 0.00 0.00 0.00 83 1010.4
20260505161737 26 197 1.6 1.6 0.00 0.00 0.00 83 1010.6
20260505161235 26 205 0.0 3.2 0.00 0.00 0.00 83 1010.1
20260505160732 26 164 4.8 6.4 0.00 0.00 0.00 82 1010.2
20260505160230 26 244 1.6 4.8 0.00 0.00 0.00 82 1010.3
20260505153209 26 98 1.6 4.8 0.00 0.00 0.00 81 1010.2
20260505152706 26 201 0.0 1.6 0.00 0.00 0.00 82 1010.1
20260505152202 25 229 0.0 4.8 0.00 0.00 0.00 83 1010.2
20260505151657 25 182 1.6 6.4 0.00 0.00 0.00 83 1010.1
20260505151155 26 240 3.2 4.8 0.00 0.00 0.00 83 1009.9
20260505150651 25 107 6.4 11.3 0.00 0.00 0.00 85 1009.9
20260505150148 25 91 1.6 3.2 0.00 0.00 0.00 89 1010.1
20260505140616 25 159 0.0 3.2 0.00 0.00 0.00 86 1010.2
20260505140113 25 248 6.4 6.4 0.00 0.00 0.00 86 1010.1
20260505125030 23 118 0.0 6.4 0.00 0.00 0.00 89 1009.9
20260505124526 23 257 0.0 0.0 0.00 0.00 0.00 89 1009.8
20260505124022 23 194 1.6 3.2 0.00 0.00 0.00 89 1009.6
20260505123519 23 295 1.6 6.4 0.00 0.00 0.00 88 1009.6
20260505123015 23 141 0.0 3.2 0.00 0.00 0.00 88 1009.4
20260505122513 23 160 1.6 6.4 0.00 0.00 0.00 88 1009.4
20260505122009 23 185 0.0 4.8 0.00 0.00 0.00 88 1009.2
20260505121506 23 232 3.2 6.4 0.00 0.00 0.00 88 1009.3
20260505121002 23 233 0.0 1.6 0.00 0.00 0.00 89 1009.6
20260505120459 23 211 1.6 3.2 0.00 0.00 0.00 89 1009.6
20260505115958 23 237 0.0 0.0 0.00 0.00 0.00 89 1009.8
20260505115454 23 236 1.6 4.8 0.00 0.00 0.00 89 1009.6
20260505114952 23 212 1.6 3.2 0.00 0.00 0.00 89 1009.5
20260505114448 23 165 1.6 6.4 0.00 0.00 0.00 89 1009.3
20260505113945 23 115 0.0 3.2 0.00 0.00 0.00 89 1009.4
20260505113441 22 201 1.6 4.8 0.00 0.00 0.00 89 1009.5
20260505112937 22 181 1.6 3.2 0.00 0.00 0.00 89 1009.3
20260505112435 22 223 1.6 4.8 0.00 0.00 0.00 89 1009.3
20260505111931 22 201 0.0 3.2 0.00 0.00 0.00 89 1009.5
20260505111426 23 246 1.6 3.2 0.00 0.00 0.00 88 1009.5
20260505110923 23 238 1.6 3.2 0.00 0.00 0.00 88 1009.6
20260505110419 23 179 0.0 1.6 0.00 0.00 0.00 88 1009.7
20260505101850 22 198 0.0 3.2 0.00 0.00 0.00 88 1009.5
20260505101345 22 216 0.0 4.8 0.00 0.00 0.00 88 1009.4
20260505100841 22 196 0.0 3.2 0.00 0.00 0.00 87 1009.3
20260505100338 22 182 0.0 1.6 0.00 0.00 0.00 87 1009.2
20260505095833 22 218 0.0 3.2 0.00 0.00 0.00 87 1009.2
20260505095331 22 202 1.6 3.2 0.00 0.00 0.00 87 1009.5
20260505094827 22 176 1.6 4.8 0.00 0.00 0.00 87 1009.3
20260505094324 22 228 1.6 4.8 0.00 0.00 0.00 88 1009.5
20260505093820 22 226 3.2 4.8 0.00 0.00 0.00 88 1009.7
20260505093318 22 208 0.0 1.6 0.00 0.00 0.00 88 1009.9
20260505092814 22 205 1.6 1.6 0.00 0.00 0.00 88 1009.8
20260505092313 22 206 0.0 3.2 0.00 0.00 0.00 87 1009.7
20260505091810 22 229 0.0 1.6 0.00 0.00 0.00 87 1009.6
20260505091308 22 223 1.6 3.2 0.00 0.00 0.00 87 1009.6
20260505090805 22 207 1.6 3.2 0.00 0.00 0.00 87 1009.7
20260505090303 22 207 0.0 1.6 0.00 0.00 0.00 86 1009.9
20260505085800 22 186 0.0 3.2 0.00 0.00 0.00 86 1009.8
20260505085258 23 232 0.0 4.8 0.00 0.00 0.00 86 1009.6
20260505084756 23 215 0.0 1.6 0.00 0.00 0.00 86 1009.8
20260505084255 23 164 1.6 3.2 0.00 0.00 0.00 85 1009.7
20260505083751 23 166 3.2 3.2 0.00 0.00 0.00 85 1009.7
20260505083248 23 192 3.2 4.8 0.00 0.00 0.00 85 1009.7
20260505082744 23 213 0.0 1.6 0.00 0.00 0.00 85 1009.8
20260505082241 23 209 1.6 3.2 0.00 0.00 0.00 85 1009.8
20260505081737 23 136 3.2 4.8 0.00 0.00 0.00 85 1009.8
20260505081235 22 237 6.4 11.3 0.00 0.00 0.00 85 1009.9
20260505080731 22 224 1.6 4.8 0.00 0.00 0.00 85 1009.7
20260505080227 22 283 3.2 4.8 0.00 0.00 0.00 85 1010.1
20260505075723 22 230 0.0 1.6 0.00 0.00 0.00 85 1009.9
20260505075220 22 255 1.6 3.2 0.00 0.00 0.00 85 1009.9
20260505074717 22 292 0.0 1.6 0.00 0.00 0.00 85 1010.1
20260505074214 22 192 3.2 3.2 0.00 0.00 0.00 85 1010.0
20260505073712 22 227 0.0 6.4 0.00 0.00 0.00 85 1009.9
20260505073210 22 205 1.6 3.2 0.00 0.00 0.00 85 1010.0
20260505072705 22 178 1.6 1.6 0.00 0.00 0.00 85 1010.2
20260505072202 22 198 0.0 3.2 0.00 0.00 0.00 84 1010.2
20260505071657 22 192 1.6 1.6 0.00 0.00 0.00 84 1010.2
20260505071155 22 225 1.6 3.2 0.00 0.00 0.00 84 1010.3
20260505070653 22 238 1.6 3.2 0.00 0.00 0.00 85 1010.3
20260505070148 22 159 1.6 6.4 0.00 0.00 0.00 85 1010.5
20260505065645 22 167 1.6 3.2 0.00 0.00 0.00 85 1010.5
20260505065142 22 171 0.0 3.2 0.00 0.00 0.00 85 1010.7
20260505064638 22 208 1.6 4.8 0.00 0.00 0.00 85 1010.6
20260505064136 22 220 1.6 3.2 0.00 0.00 0.00 85 1010.8
20260505063634 22 232 0.0 1.6 0.00 0.00 0.00 85 1010.7
20260505063130 22 240 1.6 3.2 0.00 0.00 0.00 85 1011.0
20260505062626 22 199 0.0 1.6 0.00 0.00 0.00 84 1011.1
20260505062124 22 221 0.0 3.2 0.00 0.00 0.00 84 1010.9
20260505061621 22 225 0.0 3.2 0.00 0.00 0.00 84 1011.1
20260505061119 22 198 0.0 4.8 0.00 0.00 0.00 84 1011.3
20260505060616 22 181 3.2 4.8 0.00 0.00 0.00 84 1011.2
20260505060113 22 190 3.2 6.4 0.00 0.00 0.00 84 1011.2